DAL583 TXKF-KATL

Flight info

Callsign DAL583
Flight time 2h 43m
Altitude 34000
Route JIMAC M236 JAINS Y436 DEDDY HOTHH JJEDI4
Aircraft A319/M-VGDW/C

Departure

Time 2026-05-06 16:37
Airport L.F. Wade International Airport (TXKF)

Arrival

Time 2026-05-06 19:21
Airport Hartsfield Jackson Atlanta International Airport (KATL)
Time Latitude Longitude Altitude Speed Heading
2026-05-06 16:24 32.36285 -64.70333 22 ft 0 kts 248°
2026-05-06 16:30 32.36286 -64.70328 22 ft 2 kts 248°
2026-05-06 16:30 32.36294 -64.70306 22 ft 2 kts 248°
2026-05-06 16:30 32.36299 -64.70290 22 ft 2 kts 248°
2026-05-06 16:31 32.36305 -64.70274 23 ft 2 kts 248°
2026-05-06 16:31 32.36311 -64.70257 23 ft 2 kts 248°
2026-05-06 16:31 32.36314 -64.70247 23 ft 1 kts 241°
2026-05-06 16:31 32.36324 -64.70239 23 ft 2 kts 178°
2026-05-06 16:32 32.36337 -64.70245 23 ft 0 kts 124°
2026-05-06 16:32 32.36340 -64.70252 22 ft 1 kts 111°
2026-05-06 16:32 32.36341 -64.70255 22 ft 0 kts 115°
2026-05-06 16:34 32.36306 -64.70213 24 ft 9 kts 151°
2026-05-06 16:34 32.36272 -64.70177 24 ft 5 kts 104°
2026-05-06 16:34 32.36282 -64.70121 24 ft 8 kts 69°
2026-05-06 16:34 32.36311 -64.70038 24 ft 12 kts 67°
2026-05-06 16:35 32.36351 -64.69926 24 ft 16 kts 67°
2026-05-06 16:35 32.36396 -64.69798 23 ft 17 kts 67°
2026-05-06 16:35 32.36442 -64.69669 21 ft 14 kts 68°
2026-05-06 16:35 32.36484 -64.69550 21 ft 17 kts 68°
2026-05-06 16:36 32.36542 -64.69427 22 ft 15 kts 33°
2026-05-06 16:36 32.36639 -64.69393 24 ft 11 kts 30°
2026-05-06 16:36 32.36651 -64.69306 24 ft 11 kts 102°
2026-05-06 16:36 32.36614 -64.69094 22 ft 58 kts 101°
2026-05-06 16:37 32.36488 -64.68347 22 ft 124 kts 101°
2026-05-06 16:37 32.36275 -64.67143 85 ft 170 kts 101°
2026-05-06 16:37 32.36011 -64.65735 481 ft 186 kts 99°
2026-05-06 16:37 32.35720 -64.64171 1000 ft 202 kts 99°
2026-05-06 16:38 32.35164 -64.62576 1524 ft 225 kts 124°
2026-05-06 16:38 32.33913 -64.61309 2092 ft 249 kts 149°
2026-05-06 16:38 32.32212 -64.60752 2711 ft 269 kts 179°
2026-05-06 16:38 32.30393 -64.61347 3496 ft 276 kts 214°
2026-05-06 16:39 32.29171 -64.63007 4340 ft 272 kts 249°
2026-05-06 16:39 32.28879 -64.65153 5159 ft 269 kts 275°
2026-05-06 16:39 32.28991 -64.67371 5902 ft 275 kts 275°
2026-05-06 16:39 32.29100 -64.69630 6679 ft 279 kts 275°
2026-05-06 16:40 32.29195 -64.71905 7499 ft 281 kts 274°
2026-05-06 16:40 32.29280 -64.74183 8316 ft 282 kts 274°
2026-05-06 16:40 32.29362 -64.76502 9126 ft 283 kts 274°
2026-05-06 16:40 32.29440 -64.78786 9917 ft 284 kts 274°
2026-05-06 16:41 32.29517 -64.81116 10717 ft 289 kts 274°
2026-05-06 16:41 32.29596 -64.83530 11260 ft 304 kts 274°
2026-05-06 16:41 32.29682 -64.86120 11683 ft 323 kts 274°
2026-05-06 16:41 32.29768 -64.88816 12071 ft 341 kts 274°
2026-05-06 16:42 32.29860 -64.91704 12443 ft 359 kts 273°
2026-05-06 16:42 32.29955 -64.94715 12773 ft 377 kts 273°
2026-05-06 16:42 32.30051 -64.97829 13259 ft 388 kts 273°
2026-05-06 16:42 32.30147 -65.01013 14017 ft 392 kts 273°
2026-05-06 16:43 32.30244 -65.04243 14767 ft 395 kts 273°
2026-05-06 16:43 32.30340 -65.07486 15494 ft 398 kts 273°
2026-05-06 16:43 32.30436 -65.10758 16186 ft 402 kts 273°
2026-05-06 16:43 32.30532 -65.14034 16814 ft 405 kts 274°
2026-05-06 16:44 32.30629 -65.17390 17387 ft 409 kts 274°
2026-05-06 16:44 32.30725 -65.20734 17929 ft 412 kts 274°
2026-05-06 16:44 32.30821 -65.24096 18445 ft 414 kts 274°
2026-05-06 16:44 32.30917 -65.27500 18929 ft 417 kts 274°
2026-05-06 16:45 32.31013 -65.30938 19392 ft 419 kts 274°
2026-05-06 16:45 32.31107 -65.34359 19825 ft 422 kts 274°
2026-05-06 16:45 32.31202 -65.37843 20261 ft 424 kts 274°
2026-05-06 16:45 32.31297 -65.41296 20682 ft 426 kts 274°
2026-05-06 16:46 32.31392 -65.44805 21097 ft 428 kts 274°
2026-05-06 16:46 32.31485 -65.48334 21514 ft 430 kts 274°
2026-05-06 16:46 32.31578 -65.51860 21909 ft 432 kts 274°
2026-05-06 16:46 32.31672 -65.55424 22291 ft 434 kts 275°
2026-05-06 16:47 32.31763 -65.58968 22674 ft 436 kts 275°
2026-05-06 16:47 32.31856 -65.62563 23037 ft 438 kts 275°
2026-05-06 16:47 32.31945 -65.66125 23416 ft 439 kts 274°
2026-05-06 16:47 32.32035 -65.69746 23770 ft 441 kts 274°
2026-05-06 16:48 32.32124 -65.73374 24084 ft 444 kts 275°
2026-05-06 16:48 32.32212 -65.77023 24419 ft 445 kts 275°
2026-05-06 16:48 32.32300 -65.80641 24724 ft 447 kts 275°
2026-05-06 16:48 32.32388 -65.84330 25011 ft 449 kts 275°
2026-05-06 16:49 32.32475 -65.88028 25280 ft 451 kts 275°
2026-05-06 16:49 32.32561 -65.91690 25541 ft 453 kts 275°
2026-05-06 16:49 32.32647 -65.95437 25803 ft 454 kts 275°
2026-05-06 16:49 32.32731 -65.99130 26054 ft 455 kts 275°
2026-05-06 16:50 32.32815 -66.02890 26206 ft 458 kts 275°
2026-05-06 16:50 32.32899 -66.06670 26421 ft 460 kts 275°
2026-05-06 16:50 32.32980 -66.10416 26737 ft 458 kts 275°
2026-05-06 16:50 32.33058 -66.14154 27086 ft 457 kts 275°
2026-05-06 16:51 32.33136 -66.17908 27406 ft 455 kts 276°
2026-05-06 16:51 32.33212 -66.21620 27695 ft 455 kts 276°
2026-05-06 16:51 32.33289 -66.25333 27992 ft 454 kts 276°
2026-05-06 16:51 32.33366 -66.29089 28314 ft 453 kts 276°
2026-05-06 16:52 32.33439 -66.32790 28614 ft 452 kts 276°
2026-05-06 16:52 32.33511 -66.36462 28926 ft 451 kts 276°
2026-05-06 16:52 32.33583 -66.40184 29231 ft 450 kts 276°
2026-05-06 16:52 32.33653 -66.43901 29507 ft 450 kts 276°
2026-05-06 16:53 32.33723 -66.47587 29807 ft 449 kts 277°
2026-05-06 16:53 32.33790 -66.51221 30092 ft 448 kts 277°
2026-05-06 16:53 32.33856 -66.54875 30355 ft 447 kts 277°
2026-05-06 16:53 32.33922 -66.58559 30616 ft 446 kts 277°
2026-05-06 16:54 32.33988 -66.62224 30868 ft 445 kts 277°
2026-05-06 16:54 32.34051 -66.65845 31115 ft 445 kts 277°
2026-05-06 16:54 32.34113 -66.69486 31339 ft 445 kts 277°
2026-05-06 16:54 32.34174 -66.73138 31608 ft 444 kts 277°
2026-05-06 16:55 32.34233 -66.76761 31858 ft 443 kts 277°
2026-05-06 16:55 32.34292 -66.80406 32101 ft 443 kts 277°
2026-05-06 16:55 32.34350 -66.84048 32365 ft 442 kts 277°
2026-05-06 16:55 32.34406 -66.87635 32590 ft 441 kts 277°
2026-05-06 16:56 32.34462 -66.91276 32811 ft 441 kts 277°
2026-05-06 16:56 32.34515 -66.94849 33046 ft 440 kts 277°
2026-05-06 16:56 32.34569 -66.98483 33301 ft 438 kts 277°
2026-05-06 16:56 32.34622 -67.02068 33543 ft 437 kts 277°
2026-05-06 16:57 32.34674 -67.05660 33778 ft 437 kts 277°
2026-05-06 16:57 32.34724 -67.09190 34017 ft 436 kts 277°
2026-05-06 16:57 32.34774 -67.12799 34170 ft 437 kts 277°
2026-05-06 16:58 32.34867 -67.19931 34177 ft 436 kts 277°
2026-05-06 16:58 32.34957 -67.27071 34179 ft 435 kts 277°
2026-05-06 16:59 32.35045 -67.34217 34179 ft 436 kts 277°
2026-05-06 16:59 32.35126 -67.41367 34179 ft 436 kts 277°
2026-05-06 17:00 32.35204 -67.48506 34179 ft 436 kts 277°
2026-05-06 17:00 32.35278 -67.55678 34179 ft 435 kts 277°
2026-05-06 17:01 32.35347 -67.62813 34179 ft 435 kts 278°
2026-05-06 17:01 32.35413 -67.69929 34179 ft 436 kts 277°
2026-05-06 17:02 32.35475 -67.77058 34179 ft 435 kts 277°
2026-05-06 17:02 32.35532 -67.84216 34180 ft 435 kts 277°
2026-05-06 17:03 32.35584 -67.91322 34179 ft 435 kts 277°
2026-05-06 17:03 32.35632 -67.98478 34179 ft 435 kts 277°
2026-05-06 17:04 32.35677 -68.05623 34178 ft 435 kts 277°
2026-05-06 17:04 32.35716 -68.12745 34177 ft 435 kts 277°
2026-05-06 17:05 32.35751 -68.19889 34177 ft 436 kts 277°
2026-05-06 17:05 32.35478 -68.27052 34178 ft 441 kts 272°
2026-05-06 17:06 32.34952 -68.34252 34176 ft 440 kts 272°
2026-05-06 17:06 32.34418 -68.41405 34179 ft 440 kts 272°
2026-05-06 17:07 32.33878 -68.48584 34179 ft 440 kts 272°
2026-05-06 17:07 32.33329 -68.55776 34177 ft 440 kts 272°
2026-05-06 17:08 32.32779 -68.62962 34176 ft 440 kts 272°
2026-05-06 17:08 32.32220 -68.70200 34178 ft 441 kts 272°
2026-05-06 17:09 32.31667 -68.77362 34178 ft 440 kts 271°
2026-05-06 17:09 32.31099 -68.84576 34180 ft 440 kts 272°
2026-05-06 17:10 32.30530 -68.91751 34174 ft 441 kts 272°
2026-05-06 17:10 32.29961 -68.98935 34177 ft 442 kts 272°
2026-05-06 17:11 32.29386 -69.06151 34181 ft 441 kts 272°
2026-05-06 17:11 32.28805 -69.13333 34180 ft 441 kts 272°
2026-05-06 17:12 32.28218 -69.20549 34182 ft 441 kts 272°
2026-05-06 17:12 32.27633 -69.27708 34180 ft 440 kts 272°
2026-05-06 17:13 32.27043 -69.34892 34183 ft 439 kts 272°
2026-05-06 17:13 32.26451 -69.42023 34181 ft 439 kts 272°
2026-05-06 17:14 32.25851 -69.49210 34182 ft 438 kts 272°
2026-05-06 17:14 32.25249 -69.56348 34181 ft 438 kts 272°
2026-05-06 17:15 32.24649 -69.63464 34174 ft 437 kts 271°
2026-05-06 17:15 32.24038 -69.70602 34170 ft 438 kts 271°
2026-05-06 17:16 32.23430 -69.77704 34166 ft 438 kts 271°
2026-05-06 17:16 32.22810 -69.84864 34165 ft 437 kts 271°
2026-05-06 17:17 32.22190 -69.92000 34160 ft 438 kts 271°
2026-05-06 17:17 32.21571 -69.99099 34160 ft 437 kts 271°
2026-05-06 17:18 32.20939 -70.06254 34158 ft 437 kts 271°
2026-05-06 17:18 32.20308 -70.13355 34156 ft 437 kts 271°
2026-05-06 17:19 32.19672 -70.20475 34155 ft 436 kts 271°
2026-05-06 17:19 32.19033 -70.27584 34148 ft 437 kts 271°
2026-05-06 17:20 32.18390 -70.34694 34158 ft 437 kts 271°
2026-05-06 17:20 32.17745 -70.41805 34158 ft 435 kts 271°
2026-05-06 17:21 32.17100 -70.48854 34154 ft 435 kts 272°
2026-05-06 17:21 32.16446 -70.55940 34151 ft 437 kts 272°
2026-05-06 17:22 32.15786 -70.63059 34156 ft 436 kts 272°
2026-05-06 17:22 32.15126 -70.70129 34155 ft 436 kts 271°
2026-05-06 17:23 32.14455 -70.77255 34152 ft 436 kts 272°
2026-05-06 17:23 32.13791 -70.84324 34154 ft 435 kts 272°
2026-05-06 17:24 32.13119 -70.91380 34159 ft 435 kts 271°
2026-05-06 17:24 32.12442 -70.98470 34153 ft 438 kts 272°
2026-05-06 17:25 32.11761 -71.05563 34156 ft 436 kts 272°
2026-05-06 17:25 32.11074 -71.12668 34154 ft 435 kts 272°
2026-05-06 17:26 32.10387 -71.19724 34156 ft 435 kts 272°
2026-05-06 17:26 32.09696 -71.26775 34155 ft 435 kts 272°
2026-05-06 17:27 32.09000 -71.33868 34156 ft 435 kts 272°
2026-05-06 17:27 32.08304 -71.40880 34158 ft 433 kts 272°
2026-05-06 17:28 32.07599 -71.47968 34162 ft 432 kts 272°
2026-05-06 17:28 32.06896 -71.54957 34150 ft 432 kts 272°
2026-05-06 17:29 32.06191 -71.61974 34156 ft 432 kts 272°
2026-05-06 17:29 32.05479 -71.68977 34160 ft 433 kts 272°
2026-05-06 17:30 32.04759 -71.75993 34157 ft 433 kts 272°
2026-05-06 17:30 32.04013 -71.83028 34153 ft 433 kts 271°
2026-05-06 17:31 32.03230 -71.90040 34160 ft 433 kts 271°
2026-05-06 17:31 32.02443 -71.97072 34153 ft 433 kts 272°
2026-05-06 17:32 32.01653 -72.04083 34151 ft 432 kts 271°
2026-05-06 17:32 32.00864 -72.11028 34158 ft 431 kts 272°
2026-05-06 17:33 32.00074 -72.17986 34157 ft 429 kts 271°
2026-05-06 17:33 31.99282 -72.24919 34152 ft 429 kts 272°
2026-05-06 17:34 31.98481 -72.31897 34155 ft 427 kts 271°
2026-05-06 17:34 31.97685 -72.38779 34150 ft 428 kts 272°
2026-05-06 17:35 31.96883 -72.45705 34155 ft 427 kts 271°
2026-05-06 17:35 31.96074 -72.52633 34154 ft 428 kts 271°
2026-05-06 17:36 31.94859 -72.63004 34158 ft 426 kts 271°
2026-05-06 17:36 31.94048 -72.69866 34155 ft 425 kts 271°
2026-05-06 17:37 31.93232 -72.76754 34156 ft 425 kts 271°
2026-05-06 17:37 31.92419 -72.83582 34155 ft 425 kts 271°
2026-05-06 17:38 31.91594 -72.90482 34152 ft 424 kts 271°
2026-05-06 17:38 31.90773 -72.97301 34156 ft 423 kts 271°
2026-05-06 17:39 31.89950 -73.04120 34154 ft 423 kts 271°
2026-05-06 17:39 31.89119 -73.10956 34159 ft 422 kts 271°
2026-05-06 17:40 31.88289 -73.17776 34157 ft 422 kts 271°
2026-05-06 17:40 31.87453 -73.24601 34154 ft 422 kts 271°
2026-05-06 17:41 31.86619 -73.31373 34151 ft 422 kts 271°
2026-05-06 17:41 31.85775 -73.38206 34152 ft 422 kts 271°
2026-05-06 17:42 31.84932 -73.45006 34147 ft 421 kts 270°
2026-05-06 17:42 31.84083 -73.51802 34147 ft 422 kts 271°
2026-05-06 17:43 31.83227 -73.58633 34147 ft 422 kts 271°
2026-05-06 17:43 31.82368 -73.65446 34148 ft 422 kts 270°
2026-05-06 17:44 31.81508 -73.72231 34147 ft 421 kts 270°
2026-05-06 17:44 31.80648 -73.79001 34143 ft 421 kts 270°
2026-05-06 17:45 31.79776 -73.85840 34142 ft 422 kts 270°
2026-05-06 17:45 31.78913 -73.92626 34140 ft 421 kts 270°
2026-05-06 17:46 31.78045 -73.99399 34139 ft 420 kts 270°
2026-05-06 17:46 31.77171 -74.06190 34132 ft 420 kts 269°
2026-05-06 17:47 31.76299 -74.12932 34132 ft 421 kts 269°
2026-05-06 17:47 31.75415 -74.19709 34134 ft 420 kts 269°
2026-05-06 17:48 31.74526 -74.26497 34130 ft 420 kts 269°
2026-05-06 17:48 31.73639 -74.33257 34128 ft 422 kts 269°
2026-05-06 17:49 31.72741 -74.40065 34130 ft 422 kts 269°
2026-05-06 17:49 31.71838 -74.46870 34128 ft 421 kts 269°
2026-05-06 17:50 31.70940 -74.53618 34123 ft 423 kts 268°
2026-05-06 17:50 31.70027 -74.60465 34122 ft 422 kts 268°
2026-05-06 17:51 31.69115 -74.67251 34125 ft 423 kts 267°
2026-05-06 17:51 31.68201 -74.74027 34121 ft 424 kts 268°
2026-05-06 17:52 31.67279 -74.80846 34118 ft 424 kts 268°
2026-05-06 17:52 31.66356 -74.87644 34118 ft 423 kts 267°
2026-05-06 17:53 31.65429 -74.94456 34114 ft 423 kts 266°
2026-05-06 17:53 31.64497 -75.01224 34114 ft 424 kts 267°
2026-05-06 17:54 31.63557 -75.08063 34113 ft 426 kts 267°
2026-05-06 17:54 31.62613 -75.14894 34114 ft 425 kts 267°
2026-05-06 17:55 31.61666 -75.21724 34112 ft 424 kts 266°
2026-05-06 17:55 31.60719 -75.28533 34113 ft 425 kts 266°
2026-05-06 17:56 31.59767 -75.35343 34107 ft 426 kts 267°
2026-05-06 17:56 31.58808 -75.42177 34104 ft 425 kts 267°
2026-05-06 17:57 31.57844 -75.49021 34107 ft 425 kts 267°
2026-05-06 17:57 31.56879 -75.55836 34105 ft 425 kts 267°
2026-05-06 17:58 31.55907 -75.62676 34107 ft 425 kts 266°
2026-05-06 17:58 31.54933 -75.69482 34105 ft 425 kts 266°
2026-05-06 17:59 31.53964 -75.76266 34104 ft 424 kts 266°
2026-05-06 17:59 31.52982 -75.83097 34101 ft 426 kts 266°
2026-05-06 18:00 31.52002 -75.89892 34104 ft 425 kts 267°
2026-05-06 18:00 31.51015 -75.96714 34101 ft 424 kts 266°
2026-05-06 18:01 31.50027 -76.03499 34102 ft 426 kts 267°
2026-05-06 18:01 31.49033 -76.10330 34104 ft 425 kts 267°
2026-05-06 18:02 31.48031 -76.17163 34105 ft 424 kts 266°
2026-05-06 18:02 31.47032 -76.23947 34107 ft 423 kts 266°
2026-05-06 18:03 31.46036 -76.30698 34106 ft 422 kts 267°
2026-05-06 18:03 31.45034 -76.37460 34113 ft 422 kts 266°
2026-05-06 18:04 31.44038 -76.44162 34109 ft 420 kts 266°
2026-05-06 18:04 31.43030 -76.50888 34106 ft 420 kts 267°
2026-05-06 18:05 31.42023 -76.57602 34110 ft 421 kts 267°
2026-05-06 18:05 31.41007 -76.64351 34102 ft 421 kts 267°
2026-05-06 18:06 31.39996 -76.71035 34106 ft 419 kts 266°
2026-05-06 18:06 31.38970 -76.77780 34097 ft 421 kts 267°
2026-05-06 18:07 31.37947 -76.84495 34102 ft 421 kts 266°
2026-05-06 18:07 31.37432 -76.91185 34099 ft 410 kts 278°
2026-05-06 18:08 31.38375 -76.97621 34095 ft 400 kts 290°
2026-05-06 18:08 31.40640 -77.03560 34095 ft 397 kts 303°
2026-05-06 18:09 31.44019 -77.08567 34095 ft 395 kts 315°
2026-05-06 18:09 31.48061 -77.12940 34098 ft 394 kts 316°
2026-05-06 18:10 31.52121 -77.17237 34096 ft 395 kts 316°
2026-05-06 18:10 31.56196 -77.21525 34095 ft 395 kts 316°
2026-05-06 18:11 31.60269 -77.25811 34093 ft 393 kts 316°
2026-05-06 18:11 31.64345 -77.30090 34093 ft 392 kts 316°
2026-05-06 18:12 31.68414 -77.34351 34089 ft 393 kts 316°
2026-05-06 18:12 31.72468 -77.38619 34091 ft 393 kts 316°
2026-05-06 18:13 31.76519 -77.42887 34090 ft 393 kts 316°
2026-05-06 18:13 31.80580 -77.47175 34089 ft 392 kts 316°
2026-05-06 18:14 31.84634 -77.51472 34087 ft 391 kts 316°
2026-05-06 18:14 31.88660 -77.55737 34086 ft 391 kts 316°
2026-05-06 18:15 31.92691 -77.60020 34083 ft 391 kts 316°
2026-05-06 18:15 31.96739 -77.64329 34084 ft 391 kts 316°
2026-05-06 18:16 32.00766 -77.68607 34083 ft 390 kts 315°
2026-05-06 18:16 32.04783 -77.72879 34085 ft 391 kts 315°
2026-05-06 18:17 32.08812 -77.77178 34083 ft 391 kts 315°
2026-05-06 18:17 32.12798 -77.81535 34085 ft 390 kts 313°
2026-05-06 18:18 32.16382 -77.86345 34083 ft 390 kts 307°
2026-05-06 18:18 32.19427 -77.91585 34080 ft 389 kts 301°
2026-05-06 18:19 32.21933 -77.97233 34076 ft 389 kts 296°
2026-05-06 18:19 32.23962 -78.03115 34077 ft 389 kts 293°
2026-05-06 18:20 32.25949 -78.09071 34076 ft 389 kts 293°
2026-05-06 18:20 32.27910 -78.14995 34082 ft 389 kts 293°
2026-05-06 18:21 32.29856 -78.20915 34076 ft 388 kts 293°
2026-05-06 18:21 32.31807 -78.26867 34071 ft 388 kts 293°
2026-05-06 18:22 32.33743 -78.32787 34071 ft 388 kts 293°
2026-05-06 18:22 32.35692 -78.38744 34070 ft 388 kts 293°
2026-05-06 18:23 32.37640 -78.44675 34065 ft 388 kts 293°
2026-05-06 18:23 32.39567 -78.50577 34070 ft 388 kts 293°
2026-05-06 18:24 32.41503 -78.56519 34065 ft 388 kts 292°
2026-05-06 18:24 32.43435 -78.62481 34060 ft 387 kts 293°
2026-05-06 18:25 32.45356 -78.68413 34060 ft 389 kts 292°
2026-05-06 18:25 32.47275 -78.74376 34060 ft 388 kts 292°
2026-05-06 18:26 32.49196 -78.80331 34061 ft 387 kts 292°
2026-05-06 18:26 32.51122 -78.86298 34057 ft 388 kts 292°
2026-05-06 18:27 32.53046 -78.92242 34047 ft 388 kts 292°
2026-05-06 18:27 32.54960 -78.98183 34050 ft 387 kts 292°
2026-05-06 18:28 32.56865 -79.04125 34039 ft 387 kts 292°
2026-05-06 18:28 32.58776 -79.10098 34043 ft 386 kts 292°
2026-05-06 18:29 32.60661 -79.16002 34040 ft 386 kts 291°
2026-05-06 18:29 32.62551 -79.21935 34035 ft 385 kts 291°
2026-05-06 18:30 32.64444 -79.27893 34033 ft 385 kts 291°
2026-05-06 18:30 32.66324 -79.33816 34026 ft 386 kts 291°
2026-05-06 18:31 32.68201 -79.39757 34031 ft 385 kts 291°
2026-05-06 18:31 32.70078 -79.45703 34024 ft 385 kts 291°
2026-05-06 18:32 32.71940 -79.51611 34019 ft 384 kts 291°
2026-05-06 18:32 32.73803 -79.57531 34020 ft 384 kts 292°
2026-05-06 18:33 32.75796 -79.63393 34022 ft 383 kts 292°
2026-05-06 18:33 32.77805 -79.69255 34024 ft 384 kts 292°
2026-05-06 18:34 32.79800 -79.75114 34025 ft 382 kts 291°
2026-05-06 18:34 32.81782 -79.80971 34028 ft 382 kts 292°
2026-05-06 18:35 32.83756 -79.86813 34030 ft 383 kts 292°
2026-05-06 18:35 32.85723 -79.92660 34031 ft 382 kts 292°
2026-05-06 18:36 32.87610 -79.98570 34035 ft 382 kts 289°
2026-05-06 18:36 32.89069 -80.04617 34034 ft 382 kts 285°
2026-05-06 18:37 32.89940 -80.09806 34036 ft 384 kts 282°
2026-05-06 18:37 32.90726 -80.17145 34032 ft 385 kts 279°
2026-05-06 18:38 32.91342 -80.23449 34030 ft 385 kts 279°
2026-05-06 18:38 32.91949 -80.29754 34028 ft 385 kts 279°
2026-05-06 18:39 32.92551 -80.36073 34026 ft 385 kts 279°
2026-05-06 18:40 32.93439 -80.45561 34019 ft 384 kts 279°
2026-05-06 18:40 32.94027 -80.51870 34020 ft 385 kts 279°
2026-05-06 18:41 32.94611 -80.58192 34024 ft 386 kts 279°
2026-05-06 18:41 32.95193 -80.64497 34023 ft 385 kts 279°
2026-05-06 18:42 32.95769 -80.70795 34024 ft 385 kts 278°
2026-05-06 18:42 32.96346 -80.77148 34022 ft 385 kts 278°
2026-05-06 18:43 32.96920 -80.83476 34014 ft 386 kts 278°
2026-05-06 18:43 32.97490 -80.89791 34003 ft 385 kts 278°
2026-05-06 18:44 32.98051 -80.96099 33999 ft 385 kts 278°
2026-05-06 18:44 32.98619 -81.02457 34003 ft 385 kts 278°
2026-05-06 18:45 32.99173 -81.08747 33997 ft 386 kts 278°
2026-05-06 18:45 32.99731 -81.15102 33995 ft 385 kts 278°
2026-05-06 18:46 33.00283 -81.21413 34008 ft 385 kts 278°
2026-05-06 18:46 33.00834 -81.27746 34000 ft 384 kts 278°
2026-05-06 18:47 33.01379 -81.34049 34003 ft 384 kts 278°
2026-05-06 18:47 33.01923 -81.40393 34003 ft 384 kts 278°
2026-05-06 18:48 33.02458 -81.46687 33993 ft 386 kts 278°
2026-05-06 18:48 33.02992 -81.53019 33987 ft 385 kts 278°
2026-05-06 18:49 33.03530 -81.59380 33981 ft 385 kts 277°
2026-05-06 18:49 33.04057 -81.65713 33985 ft 385 kts 277°
2026-05-06 18:50 33.04581 -81.72031 33980 ft 385 kts 277°
2026-05-06 18:50 33.05099 -81.78378 33989 ft 386 kts 277°
2026-05-06 18:51 33.05618 -81.84718 33976 ft 385 kts 277°
2026-05-06 18:51 33.06119 -81.91032 33979 ft 386 kts 277°
2026-05-06 18:52 33.06602 -81.97381 33983 ft 386 kts 277°
2026-05-06 18:52 33.07082 -82.03761 33984 ft 385 kts 277°
2026-05-06 18:53 33.07555 -82.10107 33982 ft 385 kts 276°
2026-05-06 18:53 33.08022 -82.16452 33987 ft 385 kts 277°
2026-05-06 18:54 33.08486 -82.22790 33987 ft 385 kts 277°
2026-05-06 18:54 33.08946 -82.29141 33984 ft 385 kts 276°
2026-05-06 18:55 33.09406 -82.35497 33989 ft 385 kts 276°
2026-05-06 18:55 33.09859 -82.41814 33597 ft 385 kts 276°
2026-05-06 18:55 33.10083 -82.44988 32888 ft 385 kts 277°
2026-05-06 18:56 33.10306 -82.48161 32203 ft 385 kts 277°
2026-05-06 18:56 33.10526 -82.51311 31500 ft 386 kts 277°
2026-05-06 18:56 33.10752 -82.54509 30771 ft 386 kts 276°
2026-05-06 18:56 33.10972 -82.57651 30018 ft 386 kts 277°
2026-05-06 18:57 33.11193 -82.60836 29249 ft 386 kts 277°
2026-05-06 18:57 33.11412 -82.63998 28495 ft 386 kts 277°
2026-05-06 18:57 33.11630 -82.67168 27999 ft 380 kts 276°
2026-05-06 18:57 33.11844 -82.70261 27530 ft 374 kts 276°
2026-05-06 18:58 33.12053 -82.73325 27061 ft 368 kts 276°
2026-05-06 18:58 33.12257 -82.76327 26592 ft 364 kts 276°
2026-05-06 18:58 33.12466 -82.79376 26101 ft 374 kts 276°
2026-05-06 18:58 33.12681 -82.82458 25617 ft 374 kts 276°
2026-05-06 18:59 33.12896 -82.85519 25138 ft 371 kts 276°
2026-05-06 18:59 33.13112 -82.88604 24642 ft 369 kts 276°
2026-05-06 18:59 33.13322 -82.91617 24154 ft 367 kts 275°
2026-05-06 18:59 33.13525 -82.94626 23661 ft 363 kts 276°
2026-05-06 19:00 33.13729 -82.97612 23181 ft 361 kts 275°
2026-05-06 19:00 33.13928 -83.00562 22705 ft 359 kts 275°
2026-05-06 19:00 33.14130 -83.03545 22244 ft 356 kts 275°
2026-05-06 19:00 33.14258 -83.05470 21934 ft 355 kts 275°
2026-05-06 19:01 33.14517 -83.09343 21301 ft 351 kts 275°
2026-05-06 19:01 33.14711 -83.12242 20815 ft 349 kts 275°
2026-05-06 19:01 33.14902 -83.15097 20331 ft 347 kts 275°
2026-05-06 19:01 33.15089 -83.17960 19865 ft 345 kts 275°
2026-05-06 19:02 33.15275 -83.20796 19388 ft 343 kts 274°
2026-05-06 19:02 33.15458 -83.23592 18921 ft 340 kts 274°
2026-05-06 19:02 33.15640 -83.26417 18452 ft 338 kts 274°
2026-05-06 19:02 33.15819 -83.29195 17993 ft 336 kts 274°
2026-05-06 19:03 33.15997 -83.31958 17529 ft 335 kts 274°
2026-05-06 19:03 33.16175 -83.34711 17046 ft 334 kts 274°
2026-05-06 19:03 33.16350 -83.37439 16560 ft 333 kts 274°
2026-05-06 19:03 33.16526 -83.40191 16107 ft 331 kts 274°
2026-05-06 19:04 33.16701 -83.42916 15941 ft 327 kts 274°
2026-05-06 19:04 33.16870 -83.45581 15643 ft 319 kts 274°
2026-05-06 19:04 33.17032 -83.48199 15213 ft 315 kts 273°
2026-05-06 19:04 33.17189 -83.50779 14755 ft 313 kts 273°
2026-05-06 19:05 33.17343 -83.53349 14312 ft 310 kts 273°
2026-05-06 19:05 33.17495 -83.55878 13891 ft 306 kts 273°
2026-05-06 19:05 33.17644 -83.58394 13481 ft 303 kts 273°
2026-05-06 19:05 33.17792 -83.60880 13076 ft 300 kts 272°
2026-05-06 19:06 33.17938 -83.63363 12672 ft 297 kts 272°
2026-05-06 19:06 33.18079 -83.65792 12279 ft 293 kts 272°
2026-05-06 19:06 33.18220 -83.68193 11975 ft 287 kts 272°
2026-05-06 19:06 33.18356 -83.70506 11840 ft 268 kts 272°
2026-05-06 19:07 33.18483 -83.72626 11751 ft 254 kts 271°
2026-05-06 19:07 33.18605 -83.74725 11613 ft 255 kts 272°
2026-05-06 19:07 33.18733 -83.76826 11271 ft 254 kts 272°
2026-05-06 19:07 33.18860 -83.78917 10946 ft 253 kts 272°
2026-05-06 19:08 33.19069 -83.80999 10605 ft 254 kts 282°
2026-05-06 19:08 33.19813 -83.82928 10270 ft 259 kts 299°
2026-05-06 19:08 33.21016 -83.84547 9950 ft 262 kts 308°
2026-05-06 19:08 33.22296 -83.86079 9638 ft 261 kts 308°
2026-05-06 19:09 33.23576 -83.87606 9327 ft 259 kts 308°
2026-05-06 19:09 33.24840 -83.89115 9023 ft 258 kts 308°
2026-05-06 19:09 33.26102 -83.90621 8720 ft 257 kts 308°
2026-05-06 19:09 33.27359 -83.92123 8422 ft 255 kts 309°
2026-05-06 19:10 33.28614 -83.93621 8124 ft 255 kts 309°
2026-05-06 19:10 33.29876 -83.95130 7898 ft 260 kts 309°
2026-05-06 19:10 33.31164 -83.96674 7913 ft 268 kts 309°
2026-05-06 19:10 33.32490 -83.98259 7918 ft 269 kts 309°
2026-05-06 19:11 33.33817 -83.99841 7923 ft 270 kts 309°
2026-05-06 19:11 33.35149 -84.01424 7931 ft 271 kts 312°
2026-05-06 19:11 33.36773 -84.02629 7924 ft 282 kts 336°
2026-05-06 19:11 33.38745 -84.02973 7937 ft 291 kts 353°
2026-05-06 19:12 33.40783 -84.02998 7938 ft 292 kts 354°
2026-05-06 19:12 33.42818 -84.03011 7936 ft 293 kts 354°
2026-05-06 19:12 33.44867 -84.03036 7931 ft 293 kts 353°
2026-05-06 19:12 33.46896 -84.03072 7866 ft 294 kts 353°
2026-05-06 19:13 33.48945 -84.03140 7480 ft 294 kts 353°
2026-05-06 19:13 33.50990 -84.03039 7196 ft 293 kts
2026-05-06 19:13 33.52990 -84.02936 6879 ft 284 kts 346°
2026-05-06 19:13 33.54854 -84.03622 6584 ft 275 kts 333°
2026-05-06 19:14 33.56614 -84.04455 6283 ft 273 kts 335°
2026-05-06 19:14 33.58409 -84.05206 6009 ft 270 kts 338°
2026-05-06 19:14 33.60167 -84.05840 5942 ft 258 kts 339°
2026-05-06 19:14 33.61853 -84.06453 5933 ft 242 kts 330°
2026-05-06 19:15 33.63034 -84.07670 5892 ft 217 kts 291°
2026-05-06 19:15 33.63350 -84.09357 5684 ft 209 kts 266°
2026-05-06 19:15 33.63279 -84.11126 5437 ft 211 kts 265°
2026-05-06 19:15 33.63228 -84.12915 5173 ft 221 kts 266°
2026-05-06 19:16 33.63203 -84.14764 4898 ft 221 kts 267°
2026-05-06 19:16 33.63193 -84.16616 4612 ft 221 kts 267°
2026-05-06 19:16 33.63191 -84.18446 4338 ft 220 kts 267°
2026-05-06 19:16 33.63192 -84.20287 4092 ft 217 kts 267°
2026-05-06 19:17 33.63195 -84.22057 3923 ft 210 kts 267°
2026-05-06 19:17 33.63197 -84.23780 3812 ft 200 kts 268°
2026-05-06 19:17 33.63207 -84.25416 3612 ft 196 kts 268°
2026-05-06 19:17 33.63211 -84.27031 3361 ft 192 kts 267°
2026-05-06 19:18 33.63208 -84.28625 3079 ft 187 kts 267°
2026-05-06 19:18 33.63203 -84.30156 2817 ft 182 kts 266°
2026-05-06 19:18 33.63200 -84.31652 2565 ft 175 kts 266°
2026-05-06 19:18 33.63199 -84.33038 2351 ft 158 kts 266°
2026-05-06 19:19 33.63197 -84.34308 2141 ft 146 kts 265°
2026-05-06 19:19 33.63192 -84.35519 1969 ft 147 kts 266°
2026-05-06 19:19 33.63191 -84.36729 1819 ft 146 kts 263°
2026-05-06 19:19 33.63191 -84.37957 1631 ft 145 kts 263°
2026-05-06 19:20 33.63180 -84.39156 1439 ft 145 kts 262°
2026-05-06 19:20 33.63175 -84.40325 1235 ft 135 kts 266°
2026-05-06 19:20 33.63183 -84.41464 1067 ft 132 kts 265°
2026-05-06 19:20 33.63185 -84.42574 995 ft 122 kts 269°
2026-05-06 19:21 33.63182 -84.43389 1006 ft 74 kts 270°
2026-05-06 19:21 33.63185 -84.43961 1012 ft 60 kts 277°
2026-05-06 19:21 33.63290 -84.44273 1017 ft 11 kts 317°
2026-05-06 19:21 33.63311 -84.44271 1017 ft 1 kts 33°
2026-05-06 19:22 33.63343 -84.44247 1016 ft 7 kts 41°
2026-05-06 19:22 33.63359 -84.44151 1016 ft 15 kts 94°
2026-05-06 19:22 33.63361 -84.44021 1015 ft 19 kts 91°
2026-05-06 19:22 33.63361 -84.43849 1012 ft 21 kts 90°
2026-05-06 19:23 33.63361 -84.43687 1009 ft 16 kts 89°
2026-05-06 19:23 33.63361 -84.43547 1009 ft 16 kts 91°
2026-05-06 19:23 33.63360 -84.43409 1007 ft 17 kts 90°
2026-05-06 19:23 33.63420 -84.43311 1007 ft 17 kts 359°
2026-05-06 19:24 33.63572 -84.43310 1008 ft 23 kts 360°
2026-05-06 19:24 33.63665 -84.43225 1007 ft 19 kts 96°
2026-05-06 19:24 33.63678 -84.43085 1006 ft 11 kts 41°
2026-05-06 19:24 33.63763 -84.43066 1006 ft 13 kts 359°
2026-05-06 19:25 33.63836 -84.43065 1006 ft 8 kts
2026-05-06 19:25 33.63863 -84.43011 1006 ft 5 kts 83°
2026-05-06 19:25 33.63863 -84.42982 1005 ft 0 kts 90°